EW0921 Weather Reports


time (UTC)temp
C
wind
direction
speed
KPH
gust
KPH
rain 1hr
cm
rain 24hr
cm
rain mn
cm
humidity
%
barometer
mb
20260509213018 -17 313 3.2 14.5 0.00 0.43 0.33 1006.0
20260509211513 -17 227 6.4 12.9 0.00 0.43 0.33 1006.2
20260509210009 -17 244 6.4 32.2 0.00 0.43 0.33 1006.3
20260509204505 -17 265 6.4 20.9 0.00 0.43 0.33 1006.5
20260509203104 -17 290 4.8 14.5 0.00 0.43 0.33 1006.5
20260509201556 -17 256 4.8 14.5 0.00 0.43 0.33 1006.7
20260509200059 -17 226 4.8 14.5 0.00 0.43 0.33 1006.9
20260509194547 -17 247 4.8 17.7 0.00 0.46 0.33 1007.0
20260509193046 -17 211 3.2 20.9 0.00 0.46 0.33 1007.2
20260509191552 -17 270 4.8 16.1 0.00 0.46 0.33 1007.4
20260509190043 -17 242 1.6 14.5 0.03 0.46 0.33 1007.4
20260509184535 -17 227 3.2 12.9 0.03 0.46 0.33 1007.6
20260509183034 -17 187 1.6 17.7 0.03 0.46 0.33 1007.8
20260509181521 -17 274 3.2 12.9 0.03 0.46 0.33 1007.9
20260509180017 -17 314 4.8 14.5 0.00 0.43 0.30 1007.8
20260509174512 -17 133 3.2 16.1 0.00 0.43 0.30 1007.8
20260509173012 -17 278 3.2 19.3 0.00 0.43 0.30 1007.9
20260509171503 -17 228 0.0 11.3 0.00 0.43 0.30 1007.7
20260509170100 -17 193 0.0 14.5 0.00 0.43 0.30 1007.6
20260509164556 -17 221 0.0 14.5 0.00 0.43 0.30 1007.5
20260509163057 -17 241 4.8 14.5 0.00 0.43 0.30 1007.6
20260509161546 -17 209 0.0 6.4 0.00 0.43 0.30 1007.6
20260509160042 -17 120 0.0 11.3 0.00 0.43 0.30 1007.6
20260509154537 -17 224 0.0 8.0 0.03 0.43 0.30 1007.6
20260509153037 -17 217 1.6 9.7 0.03 0.43 0.30 1007.7
20260509151529 -17 241 0.0 8.0 0.03 0.43 0.30 1007.8
20260509150030 -17 218 0.0 4.8 0.03 0.43 0.30 1007.7
20260509144520 -17 232 0.0 6.4 0.00 0.41 0.28 1007.8
20260509143017 -17 200 0.0 6.4 0.00 0.41 0.28 1007.8
20260509141519 -17 240 0.0 4.8 0.03 0.41 0.28 1007.7
20260509140007 -17 228 0.0 9.7 0.05 0.43 0.28 1007.8
20260509134503 -17 206 0.0 6.4 0.08 0.43 0.28 1007.9
20260509133059 -17 240 0.0 8.0 0.13 0.43 0.28 1008.0
20260509131622 -17 245 0.0 1.6 0.13 0.41 0.25 1008.0
20260509124549 -17 208 0.0 4.8 0.13 0.36 0.20 1008.0
20260509123049 -17 259 1.6 6.4 0.10 0.30 0.15 1008.2
20260509121538 -17 192 0.0 4.8 0.10 0.28 0.13 1008.2
20260509120034 -17 220 0.0 4.8 0.10 0.28 0.13 1008.2
20260509114527 -17 218 0.0 1.6 0.05 0.23 0.08 1008.2
20260509113024 -17 176 0.0 3.2 0.03 0.20 0.05 1008.1
20260509111519 -17 242 0.0 8.0 0.00 0.18 0.03 1008.0
20260509110021 -17 149 0.0 1.6 0.00 0.18 0.03 1007.9
20260509104513 -17 111 0.0 0.0 0.03 0.18 0.03 1007.8
20260509103006 -17 111 0.0 0.0 0.03 0.18 0.03 1007.9
20260509101502 -17 111 0.0 1.6 0.03 0.18 0.03 1007.8
20260509100058 -17 111 0.0 0.0 0.03 0.18 0.03 1008.0
20260509094604 -17 111 0.0 0.0 0.00 0.15 0.00 1008.1
20260509093049 -17 111 0.0 0.0 0.00 0.15 0.00 1008.3
20260509091544 -17 111 0.0 0.0 0.00 0.15 0.00 1008.4
20260509090047 -17 111 0.0 0.0 0.00 0.15 0.00 1008.4
20260509084538 -17 111 0.0 0.0 0.00 0.15 0.00 1008.5
20260509083033 -17 111 0.0 0.0 0.00 0.15 0.00 1008.6
20260509081538 -17 111 0.0 0.0 0.00 0.15 0.00 1008.6
20260509080022 -17 111 0.0 0.0 0.00 0.15 0.00 1008.5
20260509074518 -17 111 0.0 0.0 0.00 0.15 0.00 1008.5
20260509073014 -17 111 0.0 0.0 0.00 0.15 0.00 1008.5
20260509071511 -17 111 0.0 0.0 0.00 0.15 0.00 1008.6
20260509070006 -17 111 0.0 0.0 0.00 0.15 0.00 1008.7
20260509064501 -17 111 0.0 0.0 0.00 0.15 0.00 1008.8
20260509063057 -17 111 0.0 1.6 0.00 0.15 0.00 1008.6
20260509061555 -17 111 0.0 0.0 0.00 0.15 0.00 1009.0
20260509060048 -17 111 0.0 0.0 0.00 0.15 0.00 1009.3
20260509054604 -17 111 0.0 0.0 0.00 0.15 0.00 1009.2
20260509053134 -17 111 0.0 0.0 0.00 0.15 0.00 1009.6
20260509051545 -17 111 0.0 3.2 0.00 0.15 0.00 1009.7
20260509050040 -17 111 0.0 0.0 0.00 0.15 0.00 1009.7
20260509044526 -17 111 0.0 0.0 0.00 0.15 0.00 1009.9
20260509043021 -17 111 0.0 0.0 0.00 0.15 0.00 1010.1
20260509041518 -17 111 0.0 0.0 0.00 0.15 0.00 1010.4
20260509040017 -17 111 0.0 0.0 0.03 0.15 0.00 1010.4
20260509034508 -17 111 0.0 0.0 0.03 0.15 0.15 1010.8
20260509033004 -17 111 0.0 0.0 0.05 0.15 0.15 1011.0
20260509031600 -17 111 0.0 0.0 0.08 0.15 0.15 1011.0
20260509030109 -17 111 0.0 0.0 0.05 0.13 0.13 1011.3
20260509024551 -17 111 0.0 0.0 0.08 0.13 0.13 1011.5
20260509023050 -17 111 0.0 0.0 0.05 0.10 0.10 1011.7
20260509021543 -17 111 0.0 3.2 0.03 0.08 0.08 1011.5
20260509020045 -17 234 0.0 1.6 0.03 0.08 0.08 1011.2
20260509014538 -17 234 0.0 0.0 0.00 0.05 0.05 1010.9
20260509013030 -17 236 0.0 0.0 0.00 0.05 0.05 1010.4
20260509011525 -17 236 0.0 3.2 0.00 0.05 0.05 1010.6
20260509010021 -17 237 0.0 1.6 0.00 0.05 0.05 1010.2
20260509004516 -17 237 0.0 1.6 0.00 0.05 0.05 1010.1
20260509003012 -17 237 0.0 0.0 0.00 0.05 0.05 1010.0
20260509001507 -17 237 0.0 0.0 0.00 0.05 0.05 1010.0
20260509000005 -17 237 0.0 0.0 0.00 0.05 0.05 1009.8
20260508234600 -17 237 0.0 0.0 0.00 0.05 0.05 1009.7
20260508233055 -17 237 0.0 0.0 0.00 0.05 0.05 1009.7
20260508231552 -17 237 0.0 0.0 0.00 0.05 0.05 1010.0
20260508230046 -17 237 0.0 1.6 0.00 0.05 0.05 1010.2
20260508224545 -17 238 0.0 0.0 0.00 0.05 0.05 1010.1
20260508223037 -17 238 0.0 0.0 0.00 0.05 0.05 1010.2
20260508221533 -17 236 0.0 0.0 0.00 0.05 0.05 1010.5
20260508220029 -17 236 0.0 1.6 0.00 0.05 0.05 1010.3
20260508214525 -17 236 0.0 0.0 0.00 0.05 0.05 1010.4